Temp
59 59 60 60 60 60 61 61 60 61 60 60 60 61 62 62 63 65 54 57 61 63 63 66 67 69 71 67 68 69 63 59 59 61 60 58 55 46 52 50 48 47 49 50 52
57 58 59 59 59 60 60 60 59 60 60 60 60 60 61 61 63 57 60 62 63 63 63 63 64 66 68 64 64 64 59 59 55 58 56 54 55 52 45 43 44 45 46 49 51
56 57 58 58 59 60 60 59 59 59 60 59 59 60 60 63 62 54 61 61 62 63 62 62 62 64 61 62 58 56 56 52 52 52 53 51 53 54 52 48 51 47 46 48 48
56 56 57 57 58 60 60 59 59 59 59 59 59 60 60 63 52 56 58 59 61 63 61 62 64 61 57 55 56 54 51 52 50 51 53 51 50 47 50 46 50 52 49 47 46
55 55 55 56 57 58 59 59 59 59 58 58 59 60 62 58 51 59 57 58 62 62 58 60 60 60 55 53 54 51 49 50 50 50 50 51 47 45 40 45 46 45 44 41 41
54 54 55 55 56 58 59 59 59 59 59 59 59 60 61 53 56 58 55 58 58 60 58 60 58 59 54 50 52 50 50 49 50 49 48 47 45 47 45 47 45 44 44 45 45
54 54 54 55 56 57 58 59 59 59 60 61 61 61 55 48 56 58 55 55 56 57 56 56 58 59 54 48 51 50 47 48 47 47 46 49 44 45 48 46 45 45 45 44 44
53 53 54 55 55 56 58 58 59 60 60 60 59 60 47 56 60 55 56 57 58 58 56 56 60 54 52 53 50 48 49 46 43 46 45 47 48 44 47 45 44 45 45 44 43
53 53 54 54 55 56 57 58 58 59 59 59 60 59 46 57 52 53 53 51 53 57 57 57 55 50 50 50 47 45 46 42 43 42 43 44 46 42 45 44 45 45 45 44 44
53 53 53 54 55 56 57 57 55 57 57 59 56 54 49 44 48 50 53 50 51 53 54 53 51 48 47 49 44 43 42 39 42 41 41 42 43 44 43 43 45 45 45 44 44
53 52 54 54 55 55 55 56 54 53 48 41 41 43 43 49 49 49 48 50 53 51 45 45 48 43 39 41 42 43 42 41 41 39 38 42 42 46 45 42 43 45 44 45 45
52 52 53 54 54 54 53 51 45 49 40 43 43 43 45 44 45 48 51 49 47 42 43 45 38 35 37 39 40 41 39 40 39 37 37 41 40 47 48 43 45 46 44 45 45
52 52 53 54 53 50 48 45 46 48 46 41 42 42 42 45 39 42 46 44 43 39 39 41 34 36 37 36 37 36 37 36 36 37 36 37 43 42 44 47 46 47 48 47 46
52 52 53 54 52 46 45 45 47 47 37 37 40 41 43 42 39 44 43 43 39 36 35 35 36 35 36 34 35 33 34 34 33 36 36 36 37 46 44 42 42 44 46 47 46
51 52 54 55 47 47 44 45 47 48 30 36 38 47 43 42 40 41 43 44 36 34 36 30 32 33 34 31 33 32 34 34 33 34 32 33 33 49 38 45 48 46 45 47 47
50 51 51 48 45 41 43 45 47 36 27 29 36 36 38 38 37 40 41 43 40 37 36 31 34 33 32 32 33 35 33 33 33 32 28 29 31 43 46 45 45 45 47 47 47
49 49 46 44 43 42 44 46 33 30 31 30 30 35 35 32 34 36 36 35 35 32 31 30 29 32 33 32 34 33 32 31 28 27 29 28 27 38 45 46 42 43 45 47 47
48 45 42 41 41 42 44 40 29 26 26 31 33 32 33 30 31 32 33 33 29 33 30 32 28 29 31 30 31 30 30 33 23 26 31 26 28 43 40 39 40 40 42 44 45
47 42 41 40 41 43 43 31 32 29 32 31 32 30 26 28 30 31 33 34 31 31 34 28 26 28 29 30 29 28 28 29 22 13 23 35 37 43 40 42 41 38 39 39 42
43 42 40 40 40 44 34 34 31 34 33 33 33 30 28 23 28 28 29 29 28 27 24 30 24 25 27 30 30 27 30 26 26 21 20 30 27 38 42 41 43 42 40 40 39
43 40 40 40 42 37 32 30 26 32 34 33 32 24 28 27 27 27 30 26 27 26 28 26 30 20 25 23 27 24 26 22 25 26 25 25 34 37 38 40 40 41 40 40 40
40 33 40 40 33 19 27 24 31 31 33 32 32 31 30 24 24 24 29 28 29 30 28 27 29 24 24 24 25 23 27 29 29 21 21 21 29 39 39 40 39 40 40 40 40
35 33 40 40 29 27 21 23 28 28 30 28 29 32 30 27 28 26 26 27 28 28 26 26 25 23 22 22 21 19 24 25 23 23 19 24 33 36 37 39 40 39 42 41 38
33 29 32 33 27 30 23 25 24 29 27 27 25 27 27 25 26 21 25 26 28 30 30 30 20 24 30 28 23 16 17 24 23 22 26 26 34 41 43 42 44 41 42 43 40
31 31 26 27 28 27 28 26 24 22 23 28 25 25 25 17 18 22 23 24 26 30 25 26 22 12 18 20 18 20 16 18 18 27 25 35 33 38 39 37 39 39 41 39 40
28 28 21 18 21 26 25 24 27 25 24 23 22 29 23 22 28 22 21 23 26 21 21 16 19 9 15 18 18 14 16 16 22 26 27 28 28 40 40 41 37 39 39 37 39
29 29 33 23 21 27 28 29 29 29 26 29 28 26 24 28 27 26 28 30 27 23 20 18 13 15 20 16 18 15 13 17 21 21 26 23 32 40 34 34 36 37 38 37 38
MSLP
1022.47 1022.44 1022.05 1021.78 1021.47 1021.38 1021.33 1021.16 1021.08 1020.89 1020.76 1020.59 1020.59 1020.61 1020.40 1020.32 1020.16 1019.91 1021.14 1022.14 1021.45 1020.91 1020.37 1019.30 1018.72 1018.13 1017.65 1017.28 1017.25 1016.91 1016.35 1016.18 1016.88 1017.36 1018.66 1020.75 1021.90 1024.10 1024.96 1025.28 1026.32 1027.11 1027.35 1028.04 1028.45
1022.51 1022.33 1022.22 1021.61 1021.57 1021.13 1021.14 1020.97 1021.00 1020.84 1020.56 1020.68 1020.64 1020.66 1020.51 1020.42 1020.20 1021.01 1022.32 1021.85 1021.41 1020.89 1020.20 1019.39 1018.70 1018.19 1017.66 1017.85 1017.88 1017.38 1017.57 1018.02 1019.25 1019.36 1019.86 1021.38 1022.49 1023.98 1025.37 1026.12 1026.86 1027.67 1028.57 1028.79 1028.80
1022.82 1022.24 1021.81 1021.97 1021.58 1021.15 1021.11 1020.95 1020.76 1020.82 1020.75 1020.83 1020.67 1020.64 1020.47 1020.24 1020.36 1021.81 1022.13 1021.66 1021.26 1020.87 1020.58 1020.14 1019.34 1018.65 1018.24 1018.53 1019.05 1019.05 1019.37 1020.24 1020.81 1021.33 1021.54 1022.21 1022.69 1024.36 1025.02 1026.15 1026.40 1027.00 1027.76 1028.86 1028.85
1022.66 1022.33 1021.99 1021.99 1021.75 1021.16 1021.10 1020.99 1020.91 1020.81 1020.96 1020.84 1020.73 1020.60 1020.33 1020.15 1021.69 1022.40 1022.30 1021.76 1021.22 1020.84 1020.47 1019.90 1019.17 1018.77 1018.95 1019.35 1020.13 1020.13 1021.40 1021.66 1022.42 1022.81 1022.75 1022.97 1023.56 1024.62 1025.44 1026.50 1027.16 1027.39 1028.04 1028.51 1029.20
1022.65 1022.53 1022.26 1022.10 1021.79 1021.58 1021.32 1021.08 1021.10 1020.93 1020.81 1020.77 1020.70 1020.57 1020.22 1020.59 1022.54 1022.74 1022.47 1021.76 1021.07 1020.80 1020.55 1019.95 1019.42 1019.23 1019.60 1020.31 1020.82 1021.29 1022.30 1022.86 1023.44 1023.70 1023.93 1024.13 1024.47 1025.04 1026.36 1027.20 1027.93 1028.39 1029.00 1029.34 1029.71
1022.73 1022.62 1022.21 1022.10 1022.05 1021.69 1021.47 1021.36 1021.15 1020.82 1020.76 1020.67 1020.62 1020.41 1020.36 1021.78 1023.45 1023.20 1022.76 1021.86 1021.62 1021.14 1020.87 1020.47 1020.07 1020.02 1020.61 1021.36 1021.72 1022.53 1022.89 1023.52 1023.93 1024.17 1024.46 1024.57 1025.11 1025.51 1026.61 1027.51 1028.24 1028.72 1029.15 1029.35 1029.76
1022.73 1022.59 1022.23 1022.28 1022.18 1021.72 1021.64 1021.36 1021.21 1020.87 1020.80 1020.52 1020.47 1020.33 1021.10 1023.28 1023.57 1023.34 1022.89 1022.49 1022.27 1021.65 1021.29 1021.43 1020.86 1020.44 1021.36 1022.13 1022.98 1023.01 1023.16 1023.65 1024.34 1024.61 1024.80 1024.95 1025.19 1025.24 1026.13 1027.40 1027.99 1028.54 1028.94 1029.43 1029.86
1022.79 1022.62 1022.35 1022.39 1022.11 1021.86 1021.60 1021.35 1021.18 1020.91 1020.79 1020.54 1020.51 1020.49 1022.59 1023.72 1023.56 1023.41 1022.95 1022.50 1022.29 1022.01 1021.89 1021.93 1021.50 1021.34 1022.00 1022.70 1022.86 1022.85 1023.00 1023.37 1024.57 1024.86 1025.29 1025.31 1024.11 1025.40 1026.41 1027.06 1027.54 1028.14 1028.71 1029.16 1029.58
1022.72 1022.72 1022.39 1022.27 1022.00 1021.73 1021.55 1021.39 1021.23 1021.07 1020.75 1020.61 1020.63 1020.75 1023.11 1023.67 1023.74 1024.02 1023.92 1023.40 1022.84 1022.37 1022.19 1022.00 1021.88 1022.63 1022.92 1022.32 1022.56 1022.86 1022.55 1023.52 1024.54 1025.43 1025.44 1025.35 1024.29 1025.33 1026.23 1026.73 1027.02 1027.62 1028.09 1028.66 1029.13
1022.56 1022.53 1022.33 1022.22 1021.89 1021.64 1021.49 1021.33 1021.31 1021.07 1021.10 1020.87 1021.43 1022.05 1023.81 1024.40 1024.42 1024.36 1024.14 1023.79 1023.19 1022.65 1022.24 1022.21 1022.62 1022.94 1023.28 1022.79 1022.34 1022.58 1023.08 1024.00 1024.45 1025.49 1025.49 1025.17 1024.39 1024.92 1025.90 1026.27 1026.27 1026.83 1027.39 1027.95 1028.42
1022.40 1022.38 1022.26 1022.07 1021.65 1021.57 1021.42 1021.43 1021.84 1022.07 1022.93 1023.78 1023.99 1024.14 1024.59 1024.79 1024.70 1024.51 1024.60 1023.85 1023.30 1023.14 1023.14 1023.56 1023.36 1024.10 1024.77 1024.44 1024.09 1023.73 1023.81 1024.15 1025.02 1025.92 1025.75 1024.71 1024.23 1023.91 1024.88 1025.41 1025.42 1025.80 1026.47 1026.88 1027.55
1022.49 1022.25 1022.05 1021.88 1021.73 1021.62 1021.62 1021.90 1022.85 1023.19 1024.25 1024.80 1024.74 1024.90 1025.21 1025.41 1024.86 1024.69 1024.46 1024.29 1023.79 1023.99 1024.27 1024.38 1025.28 1026.54 1026.47 1025.91 1025.35 1024.96 1024.82 1024.92 1025.59 1026.25 1026.05 1024.62 1023.39 1022.49 1023.00 1023.13 1023.64 1024.35 1025.07 1025.81 1026.89
1022.33 1022.13 1021.94 1021.76 1021.85 1021.85 1022.36 1023.08 1023.35 1023.23 1023.41 1025.15 1025.36 1025.33 1025.58 1025.44 1025.60 1025.47 1025.14 1024.98 1024.85 1024.98 1025.17 1025.32 1027.19 1027.49 1027.12 1026.79 1026.53 1026.48 1026.21 1026.27 1026.44 1026.26 1026.00 1024.90 1021.79 1021.23 1021.46 1022.04 1022.73 1023.03 1023.81 1024.94 1025.77
1022.20 1021.98 1021.81 1021.73 1022.11 1022.55 1023.03 1023.60 1023.43 1023.11 1023.80 1025.40 1025.51 1025.88 1025.88 1025.48 1025.83 1026.14 1026.04 1025.84 1025.95 1026.28 1026.53 1027.23 1028.08 1028.07 1027.91 1027.82 1027.59 1027.58 1027.75 1027.48 1027.21 1026.56 1025.62 1025.24 1021.85 1020.33 1020.61 1021.00 1021.42 1022.19 1022.96 1023.80 1025.03
1022.19 1021.95 1021.64 1021.73 1022.18 1022.78 1023.51 1023.57 1023.43 1023.12 1024.12 1025.76 1025.66 1025.99 1025.94 1025.62 1026.10 1026.21 1026.45 1025.76 1026.45 1026.95 1027.36 1028.62 1028.81 1028.85 1028.76 1029.07 1028.75 1028.68 1028.42 1027.85 1027.42 1026.86 1026.33 1025.19 1023.73 1019.38 1020.21 1019.64 1020.09 1020.88 1021.84 1022.82 1023.95
1022.14 1021.94 1022.10 1022.29 1022.83 1023.64 1023.69 1023.53 1023.23 1023.85 1024.49 1025.67 1025.83 1025.91 1025.85 1025.98 1026.24 1026.33 1026.27 1026.39 1027.22 1027.16 1027.67 1029.08 1029.95 1029.94 1030.01 1030.18 1029.77 1029.49 1028.83 1028.24 1027.67 1026.90 1026.10 1025.23 1024.25 1019.27 1019.44 1019.59 1019.97 1020.73 1021.21 1022.18 1023.27
1022.26 1022.21 1022.44 1022.91 1023.55 1023.77 1023.68 1023.36 1023.80 1024.19 1025.48 1025.64 1025.74 1025.86 1026.01 1026.34 1026.54 1026.52 1026.51 1026.89 1027.19 1027.41 1028.01 1029.26 1030.08 1030.71 1030.88 1030.43 1030.34 1029.66 1028.78 1027.79 1027.45 1026.82 1025.83 1025.80 1024.64 1020.27 1019.63 1020.18 1020.83 1021.08 1021.39 1021.85 1022.89
1022.41 1022.59 1023.42 1023.70 1023.69 1023.88 1023.56 1023.43 1024.01 1024.30 1024.87 1025.22 1025.53 1026.16 1026.54 1026.93 1027.03 1026.89 1026.85 1027.19 1027.51 1027.34 1028.12 1028.75 1030.33 1030.86 1031.35 1031.23 1030.67 1029.98 1029.16 1027.84 1027.37 1027.08 1026.23 1025.91 1023.19 1019.88 1020.43 1021.11 1021.57 1021.80 1021.92 1022.14 1022.74
1022.56 1023.15 1023.49 1023.93 1023.87 1023.79 1023.57 1023.94 1023.10 1023.54 1024.05 1024.79 1025.82 1026.25 1026.90 1027.26 1027.21 1027.13 1027.14 1027.15 1027.46 1027.72 1028.04 1028.89 1030.49 1031.64 1031.63 1031.41 1031.78 1031.07 1030.31 1029.60 1028.37 1028.88 1027.01 1023.70 1021.61 1020.35 1020.29 1020.92 1021.44 1021.77 1022.19 1022.51 1022.99
1022.61 1023.13 1023.77 1024.00 1023.93 1023.68 1023.90 1024.03 1024.17 1024.21 1024.30 1024.74 1024.90 1025.69 1026.37 1027.13 1027.31 1027.36 1027.37 1027.68 1028.21 1028.60 1028.76 1028.67 1030.31 1031.90 1032.34 1032.22 1032.17 1031.46 1031.06 1030.46 1029.18 1027.80 1025.95 1023.24 1022.13 1020.48 1020.36 1020.61 1021.22 1021.68 1022.19 1022.55 1023.16
1022.54 1023.13 1023.92 1023.89 1023.87 1023.90 1024.55 1024.84 1024.92 1024.97 1024.88 1024.93 1024.93 1025.62 1026.09 1026.54 1027.11 1027.39 1027.48 1028.43 1028.51 1029.02 1028.99 1029.30 1029.43 1032.16 1032.10 1032.20 1031.47 1032.11 1031.26 1030.77 1029.87 1028.21 1026.23 1023.81 1020.93 1020.62 1020.94 1021.05 1021.19 1021.79 1022.21 1022.48 1022.81
1022.56 1023.48 1023.93 1023.88 1024.34 1025.42 1025.26 1025.32 1025.43 1025.34 1025.41 1025.28 1025.19 1025.45 1025.84 1026.74 1027.11 1027.63 1027.80 1028.38 1028.75 1028.84 1029.24 1029.41 1029.54 1030.67 1031.25 1031.98 1032.71 1032.10 1030.85 1030.00 1029.15 1028.55 1027.36 1025.78 1021.45 1020.82 1021.23 1021.54 1021.74 1021.89 1022.23 1022.60 1022.99
1022.56 1023.57 1023.83 1023.89 1024.27 1025.27 1025.96 1025.95 1025.83 1025.74 1025.67 1025.80 1025.83 1025.82 1026.45 1026.68 1027.46 1027.90 1028.41 1029.30 1029.42 1029.39 1029.37 1029.54 1029.91 1030.65 1031.48 1032.02 1032.84 1032.92 1031.59 1030.42 1029.96 1028.94 1027.37 1025.40 1021.29 1021.35 1021.40 1021.55 1022.01 1022.25 1022.54 1022.62 1022.98
1022.72 1023.55 1024.28 1024.32 1024.34 1024.06 1025.25 1025.64 1025.85 1026.08 1026.08 1026.12 1026.36 1026.63 1026.92 1027.36 1027.82 1028.34 1028.93 1029.64 1029.93 1029.83 1029.81 1029.71 1030.31 1029.76 1029.61 1029.57 1030.57 1031.82 1031.49 1030.88 1030.04 1028.85 1026.46 1023.77 1021.42 1021.29 1020.94 1021.11 1021.58 1022.03 1022.34 1022.45 1022.66
1022.44 1022.80 1023.27 1024.29 1024.17 1023.95 1024.16 1024.55 1025.16 1025.81 1026.37 1026.46 1026.77 1026.44 1026.50 1027.68 1028.40 1028.52 1029.17 1029.96 1030.40 1030.41 1030.94 1030.56 1030.53 1031.15 1030.22 1030.13 1030.59 1030.70 1030.80 1030.69 1029.83 1027.37 1025.87 1022.22 1021.54 1020.95 1021.35 1021.89 1022.10 1022.33 1022.36 1022.44 1022.44
1021.94 1022.77 1023.78 1023.96 1023.49 1023.78 1023.85 1024.02 1023.85 1024.89 1025.38 1026.04 1026.10 1025.51 1026.27 1026.54 1026.28 1027.29 1028.24 1029.34 1029.31 1031.09 1031.32 1032.00 1031.83 1031.38 1031.14 1030.49 1030.46 1030.60 1030.30 1030.06 1028.93 1027.60 1025.77 1023.91 1021.76 1021.47 1021.94 1022.13 1022.44 1022.40 1022.39 1022.39 1022.40
1021.82 1021.90 1021.80 1023.61 1023.55 1023.38 1022.71 1022.19 1022.49 1023.36 1024.65 1024.75 1025.01 1025.76 1026.47 1026.24 1026.84 1027.32 1028.06 1028.42 1029.15 1030.28 1031.38 1032.27 1032.06 1032.03 1030.88 1030.86 1030.31 1029.34 1028.04 1027.76 1027.44 1026.54 1025.00 1024.27 1021.15 1021.61 1022.43 1022.82 1022.92 1022.81 1022.85 1022.69 1022.71
Wind_Speed
5 6 6 8 8 8 8 8 7 5 3 2 3 4 6 6 1 5 8 9 11 18 17 10 4 2 1 3 3 1 6 8 7 9 6 6 4 4 4 6 4 4 3 5 6
5 6 8 7 8 9 9 7 5 4 2 3 2 3 4 5 4 11 5 15 15 14 8 7 1 3 3 2 3 2 4 5 4 3 7 7 2 7 4 2 3 5 5 5 6
5 4 6 8 8 9 9 7 2 3 2 3 2 2 4 3 2 4 15 18 16 11 4 4 3 2 3 3 5 4 1 1 4 4 1 6 10 5 4 6 7 9 13 8 7
5 5 6 6 8 8 8 6 3 3 1 2 2 2 5 1 2 4 19 18 14 6 2 3 2 3 3 3 3 3 6 4 4 4 2 5 10 6 3 3 1 10 11 8 6
5 5 5 6 7 7 8 5 4 3 0 1 1 3 1 5 4 9 19 13 5 3 4 1 2 3 5 5 3 4 4 6 5 6 6 5 4 4 4 6 10 11 7 6 5
5 5 5 6 5 5 5 6 5 3 1 2 1 2 2 4 6 10 12 6 9 4 4 5 3 4 8 5 4 4 8 6 5 5 4 2 3 1 6 11 10 10 9 7 6
5 5 5 5 5 5 5 4 3 3 3 3 4 3 8 5 5 10 9 4 5 3 2 3 1 2 4 6 5 5 5 5 5 2 3 0 5 7 10 13 11 10 8 7 6
5 5 5 5 4 5 5 5 2 1 3 6 4 3 6 1 4 8 11 2 7 4 4 2 5 10 4 10 4 2 2 4 3 2 2 3 5 4 12 13 12 10 8 7 6
5 4 4 5 5 5 4 4 3 8 7 2 2 2 5 3 3 7 7 5 7 2 5 3 5 5 3 5 4 1 2 3 2 3 2 5 5 3 11 11 12 11 10 8 7
6 4 5 5 5 5 2 4 9 3 7 3 5 4 3 3 4 6 4 5 4 2 2 6 4 4 3 4 3 4 4 2 4 4 1 6 15 5 11 13 15 14 12 12 11
5 4 5 3 3 4 1 1 2 4 11 6 2 3 2 5 2 6 5 3 1 6 4 4 2 3 4 4 3 5 2 2 1 2 4 7 14 15 11 16 17 16 16 16 14
4 5 4 2 2 4 2 2 3 3 11 5 3 4 2 2 1 9 9 1 3 5 1 3 4 2 2 2 2 1 1 3 1 0 4 8 17 19 16 21 21 20 20 18 15
5 7 5 2 4 4 4 5 1 3 5 4 3 3 3 4 4 7 7 2 5 4 4 3 5 2 2 4 3 2 3 1 4 4 2 10 11 5 5 18 15 22 18 19 18
6 6 5 5 2 2 3 1 1 1 3 2 1 4 1 1 5 3 4 3 4 4 4 7 1 2 4 3 1 3 1 1 2 4 5 5 9 7 2 10 17 17 20 20 19
6 4 4 1 6 3 4 2 1 3 1 3 2 1 1 3 2 5 2 1 4 5 3 4 3 3 2 4 3 4 2 3 1 1 5 2 6 2 2 9 10 15 19 21 20
5 2 2 4 3 2 1 1 2 3 6 3 2 1 3 4 3 3 2 7 3 4 11 5 2 4 3 4 2 8 3 2 2 1 4 2 4 5 3 3 2 3 11 18 20
8 10 5 1 3 0 2 2 4 4 3 3 3 2 3 3 3 2 2 3 3 4 3 2 3 2 1 5 2 2 3 1 2 3 3 1 5 12 11 10 7 10 6 12 18
5 5 7 3 1 3 2 3 3 1 6 1 4 4 3 1 1 1 4 4 3 1 4 5 4 2 2 3 2 3 3 2 4 3 3 2 8 4 2 5 6 6 6 6 15
4 2 2 3 1 2 2 2 6 6 7 11 4 3 2 2 2 2 4 3 2 6 4 5 4 1 2 2 2 4 4 3 6 2 3 5 6 11 8 5 8 6 4 3 10
2 2 2 5 1 1 4 4 2 1 6 3 5 2 7 5 5 5 7 3 5 2 1 5 5 1 1 2 5 2 5 3 0 4 6 5 7 9 6 5 9 9 5 3 6
2 3 2 3 2 3 3 5 3 2 1 4 4 5 2 6 4 4 4 3 3 5 2 3 2 3 2 8 7 5 4 1 3 3 4 5 5 4 5 3 4 7 6 4 7
2 2 2 2 3 1 4 5 4 4 1 1 3 3 4 7 5 4 6 1 4 6 6 4 2 4 2 4 4 3 4 8 5 6 2 4 11 5 6 6 5 5 6 3 5
3 2 1 3 4 3 1 1 3 4 4 4 3 1 2 6 3 3 3 1 6 5 6 7 3 3 3 3 1 6 5 4 4 1 7 5 7 1 4 7 3 4 7 4 3
3 4 1 2 2 6 6 4 5 1 2 3 4 3 3 3 2 6 6 2 4 2 5 3 1 5 5 4 6 6 6 11 5 4 5 12 22 9 11 11 6 4 7 9 6
1 2 1 5 5 4 3 7 6 7 1 3 2 5 7 5 3 5 4 4 2 3 2 2 6 2 4 3 4 3 6 13 14 14 12 18 22 10 7 4 7 12 12 10 9
6 5 1 3 3 7 4 9 11 6 10 6 6 11 9 7 7 10 9 6 6 4 5 1 3 4 4 3 8 5 9 12 19 13 21 21 27 18 15 12 10 9 10 9 9
2 1 1 5 4 5 7 8 13 11 6 2 10 7 9 7 4 5 6 6 7 9 8 6 7 4 3 3 4 10 15 21 11 9 14 15 21 10 3 4 9 11 10 11 9
Wind_Direction
14 3 5 360 357 335 324 322 311 298 244 296 316 348 5 21 48 39 51 331 322 320 321 297 271 330 253 69 33 259 229 233 223 214 144 140 148 34 52 111 57 22 24 84 96
5 11 347 357 348 338 340 334 313 295 232 241 271 321 3 2 81 62 353 334 327 326 325 355 1 347 101 62 33 262 234 238 19 66 138 125 80 130 139 128 93 104 100 90 95
354 4 5 355 346 347 350 349 318 272 191 231 243 328 350 335 162 32 343 337 332 324 256 297 288 311 89 39 13 32 329 50 42 40 72 161 126 137 159 208 196 204 150 145 105
4 354 352 354 351 359 11 28 18 99 208 218 253 331 341 169 234 353 337 333 328 311 271 257 233 108 77 96 28 121 59 43 28 20 119 134 115 121 170 94 343 126 132 127 125
356 345 341 342 352 0 8 41 26 38 154 218 285 353 222 84 54 333 330 336 347 336 37 359 97 124 111 97 100 79 104 62 76 74 74 125 89 127 128 113 117 117 120 122 108
342 337 348 345 341 358 10 10 25 40 133 189 192 319 98 150 325 328 333 346 17 7 24 11 93 89 91 61 29 97 102 99 53 60 69 84 103 274 164 154 147 152 152 148 150
345 335 345 335 332 347 342 350 349 12 43 101 76 83 61 85 337 338 352 360 348 7 72 11 30 85 134 112 133 135 109 122 55 27 83 331 196 223 152 169 167 172 164 161 155
349 330 331 318 324 334 343 2 20 68 82 77 72 86 79 334 316 6 349 11 8 21 65 18 63 89 45 123 98 115 169 201 79 338 87 241 249 146 164 176 186 186 185 183 167
352 316 318 317 327 335 347 48 20 53 47 45 95 73 97 321 27 345 10 352 311 26 51 60 66 67 151 144 139 104 243 232 168 40 318 237 280 118 179 198 202 201 200 198 187
336 319 314 308 320 329 352 101 48 46 9 91 79 135 41 17 325 335 347 348 19 327 70 40 57 98 100 202 233 163 192 208 266 38 264 247 263 211 196 209 218 211 205 207 206
331 316 317 304 334 8 107 151 176 73 41 40 39 64 43 326 272 13 355 326 42 58 67 31 132 91 49 32 68 106 136 257 172 45 288 262 272 267 215 219 225 219 212 212 209
331 321 314 298 63 76 80 82 57 79 101 36 63 85 71 334 100 21 353 91 52 85 343 124 74 54 45 48 74 107 230 251 169 68 267 297 280 268 227 226 222 218 216 211 204
334 321 300 256 130 51 73 111 11 292 75 39 28 35 352 353 77 358 354 57 73 78 30 95 115 195 160 117 137 35 293 292 309 314 224 298 263 256 232 236 231 227 222 213 204
345 330 292 191 162 140 75 151 23 258 88 57 9 33 351 90 69 351 20 46 62 122 95 72 144 159 134 111 218 171 67 350 318 293 309 339 297 279 238 245 230 233 221 214 205
351 17 56 298 129 130 114 188 154 247 196 72 48 329 4 52 84 41 34 46 93 107 229 112 129 142 120 56 331 90 141 118 117 275 302 130 265 233 250 275 254 231 223 217 204
23 70 84 62 61 88 193 170 195 47 243 157 299 163 141 35 55 318 68 57 98 90 53 82 42 17 71 76 48 137 125 107 107 298 245 50 280 296 221 230 299 334 230 218 207
65 72 66 37 117 193 188 170 68 198 31 190 158 158 62 73 80 28 98 108 181 135 157 116 59 80 15 111 114 212 196 233 243 208 282 74 247 269 277 293 295 301 283 223 207
114 76 54 53 107 158 210 78 172 43 207 134 122 93 146 178 77 116 132 175 211 177 129 179 184 150 23 360 292 165 267 218 243 254 339 126 245 253 65 325 298 289 288 250 211
120 62 70 18 15 183 101 137 218 193 150 152 104 153 198 202 175 174 205 213 182 194 193 144 117 60 68 109 314 147 225 19 106 87 265 245 263 269 100 45 21 336 286 252 215
122 119 72 335 316 164 80 256 223 171 125 170 174 228 168 186 172 192 176 143 157 197 306 163 114 1 85 158 75 271 132 141 243 219 240 235 271 255 338 11 0 11 334 269 218
105 139 117 359 238 62 193 221 214 214 199 178 169 136 174 168 198 187 171 150 191 139 110 134 271 121 157 213 178 157 189 115 321 262 253 286 248 185 224 275 327 345 328 277 220
151 159 47 221 90 354 182 183 177 165 164 145 100 95 158 159 152 217 212 288 159 158 162 163 101 173 145 72 353 323 210 191 222 194 269 340 270 173 250 272 260 318 342 314 264
144 107 70 269 171 198 119 213 218 147 187 156 145 78 161 167 175 182 177 57 153 164 156 182 189 155 179 125 47 248 203 175 97 25 200 236 249 160 258 251 221 303 318 340 285
137 133 23 68 352 142 151 190 178 85 119 120 128 92 124 132 30 170 161 150 186 176 126 132 123 240 232 111 114 194 199 202 187 190 215 230 274 226 259 269 296 328 330 315 282
44 214 98 180 213 162 173 144 146 179 228 191 170 214 164 133 115 195 137 131 164 222 74 187 199 214 285 221 193 194 171 189 205 213 213 263 247 261 269 311 316 307 307 298 288
151 159 76 117 124 132 199 205 174 163 156 218 215 184 179 163 185 183 143 192 188 147 162 336 184 138 275 232 228 246 218 212 221 234 250 261 277 274 280 271 280 297 300 290 288
147 73 186 142 156 154 204 190 195 144 219 216 191 133 198 216 113 77 63 83 134 155 162 169 148 150 248 337 287 263 204 201 199 209 220 230 243 295 276 293 301 304 298 293 300